Location: Bocianicha
(51.5066°N, 19.2563°E)
Time: 13:18:58
(UTC+00:00)

SL-4 R/B - Pass Details

Date: 15 June 2025
Orbit: 393 x 546 km, 51.6° (Epoch: 17 July)

Event Time Altitude Azimuth Distance (km) Brightness Sun altitude
Rises 23:59:35 0° 269° (W) 2,684 5.3 -13.3°
Reaches altitude 10° 00:01:51 10° 270° (W) 1,776 4.4 -13.2°
Maximum altitude 00:05:54 87° 357° (N) 520 1.9 -13.0°
Drops below altitude 10° 00:09:46 10° 89° (E) 1,695 4.8 -12.8°
Sets 00:11:53 0° 90° (E) 2,550 5.7 -12.7°
